Home   Weather   Umm al-Quwain   Past weeks

Flag for United Arab Emirates Past Weather in Umm al-Quwain, Umm al-Quwain, United Arab Emirates — Yesterday and Last 2 Weeks

Now
88 °F

Clear.


Feels Like: 89 °F
Forecast: 81 / 92 °F
Wind: 2 mph from North

Location: Sharjah International Airport

Current Time: Apr 29, 2017 at 9:38:09 pm

Latest Report: Apr 29, 2017 at 9:00 pm


Visibility: 10 mi

Pressure: 29.80 "Hg

Humidity: 46%

Dew Point: 64 °F

Location of Umm al-QuwainLocation

Past Weather in Umm al-Quwain — Graph

°F

Umm al-Quwain Temperature Yesterday

Maximum temperature yesterday: 100 °F (at 11:00 am)
Minimum temperature yesterday: 73 °F (at 3:00 am)
Average temperature yesterday: 87 °F

High & Low Weather Summary for the Past Weeks

 TemperatureHumidityPressure
High100 °F (Apr 24, 11:00 am)94% (Apr 17, 8:00 am)29.89 "Hg (Apr 17, 8:00 am)
Low70 °F (Apr 16, 5:00 am)7% (Apr 25, 12:00 pm)29.68 "Hg (Apr 15, 3:00 pm)
Average84 °F50%29.77 "Hg
* Reported Apr 14 8:00 pm — Apr 29 8:00 pm, Umm al-Quwain, Weather by CustomWeather, © 2017

Note: Actual official high and low records may vary slightly from our data, if they occured in-between our weather recording intervals... More about our weather records

Advertising

Umm al-Quwain Weather History for the Previous 24 Hours

Scroll right to see more
 ConditionsComfort  
Time TempWeatherWind HumidityBarometerVisibility
8:00 pm
Sat, Apr 29
88 °FClear.3 mph49%29.80 "Hg10 mi
7:00 pm90 °FClear.6 mph49%29.80 "Hg10 mi
6:00 pm93 °FClear.10 mph36%29.77 "Hg5 mi
5:00 pm97 °FClear.10 mph28%29.77 "Hg5 mi
4:00 pm97 °FClear.14 mph32%29.77 "Hg4 mi
3:00 pm99 °FClear.14 mph33%29.77 "Hg5 mi
2:00 pm100 °FClear.12 mph27%29.77 "Hg5 mi
1:00 pm100 °FPassing clouds.9 mph27%29.80 "HgN/A
12:00 pm100 °FPassing clouds.7 mph29%29.83 "HgN/A
11:00 am100 °FPassing clouds.7 mph22%29.86 "HgN/A
10:00 am97 °FPassing clouds.6 mph25%29.86 "HgN/A
9:00 am95 °FPassing clouds.7 mph26%29.86 "HgN/A
8:00 am90 °FSunny.2 mph36%29.86 "Hg10 mi
7:00 am79 °FSunny.2 mph48%29.83 "Hg10 mi
6:00 am82 °FSunny.5 mph40%29.80 "Hg10 mi
5:00 am77 °FClear.6 mph54%29.77 "Hg10 mi
4:00 am77 °FClear.2 mph54%29.77 "Hg10 mi
3:00 am79 °FClear.5 mph51%29.77 "Hg10 mi
2:00 am77 °FClear.3 mph57%29.77 "Hg10 mi
1:00 am82 °FClear.3 mph51%29.77 "Hg10 mi
12:00 am81 °FClear.1 mph54%29.77 "Hg10 mi
11:00 pm
Fri, Apr 28
81 °FClear.1 mph54%29.80 "Hg10 mi
10:00 pm84 °FClear.3 mph48%29.80 "Hg10 mi
9:00 pm86 °FClear.2 mph49%29.80 "Hg10 mi
Weather by CustomWeather, © 2017

See weather overviewHow to use our weather pages